QPF
0.00 0.00 0.00 0.00 0.00 0.00 0.01 0.00 0.00 0.00 0.00 0.00 0.00 0.00 0.00 0.00 0.00 0.00 0.00 0.00 0.00 0.00 0.00 0.00 0.00 0.00 0.00 0.00 0.00 0.00 0.00 0.00 0.00 0.00 0.00 0.00 0.00 0.00 0.00 0.00 0.00 0.00 0.00
0.00 0.00 0.00 0.00 0.00 0.00 0.01 0.00 0.00 0.00 0.00 0.00 0.00 0.00 0.00 0.00 0.00 0.00 0.00 0.00 0.00 0.00 0.00 0.00 0.00 0.00 0.00 0.00 0.00 0.00 0.00 0.00 0.00 0.00 0.00 0.00 0.00 0.00 0.00 0.00 0.00 0.00 0.00
0.00 0.00 0.00 0.00 0.00 0.00 0.01 0.00 0.00 0.00 0.00 0.00 0.00 0.00 0.00 0.00 0.00 0.00 0.00 0.00 0.00 0.00 0.00 0.00 0.00 0.00 0.00 0.00 0.00 0.00 0.00 0.00 0.00 0.00 0.00 0.00 0.00 0.00 0.00 0.00 0.00 0.00 0.01
0.00 0.00 0.00 0.00 0.00 0.00 0.00 0.00 0.00 0.00 0.00 0.00 0.00 0.00 0.00 0.00 0.00 0.00 0.00 0.00 0.00 0.00 0.00 0.00 0.02 0.01 0.01 0.00 0.00 0.00 0.00 0.00 0.00 0.00 0.00 0.00 0.00 0.00 0.00 0.00 0.00 0.00 0.00
0.00 0.00 0.00 0.00 0.00 0.00 0.00 0.00 0.00 0.00 0.00 0.00 0.00 0.00 0.00 0.00 0.00 0.00 0.00 0.00 0.00 0.00 0.00 0.00 0.00 0.00 0.00 0.01 0.02 0.01 0.00 0.00 0.00 0.00 0.00 0.00 0.00 0.00 0.00 0.00 0.00 0.00 0.00
0.00 0.00 0.00 0.00 0.00 0.00 0.00 0.00 0.00 0.00 0.00 0.00 0.00 0.00 0.00 0.00 0.00 0.00 0.00 0.00 0.00 0.00 0.00 0.00 0.00 0.00 0.00 0.00 0.01 0.00 0.00 0.00 0.01 0.00 0.00 0.00 0.00 0.00 0.00 0.00 0.00 0.00 0.00
0.00 0.00 0.00 0.00 0.00 0.00 0.00 0.00 0.00 0.00 0.00 0.00 0.00 0.00 0.00 0.00 0.00 0.00 0.00 0.00 0.00 0.00 0.00 0.00 0.00 0.00 0.00 0.00 0.00 0.00 0.00 0.00 0.02 0.00 0.00 0.00 0.00 0.00 0.00 0.00 0.00 0.00 0.00
0.00 0.00 0.00 0.00 0.00 0.00 0.00 0.00 0.00 0.00 0.00 0.00 0.00 0.00 0.00 0.00 0.00 0.00 0.00 0.00 0.00 0.00 0.00 0.00 0.00 0.00 0.00 0.00 0.00 0.00 0.00 0.00 0.01 0.00 0.00 0.00 0.00 0.00 0.00 0.00 0.00 0.00 0.00
0.00 0.00 0.00 0.00 0.00 0.00 0.00 0.00 0.00 0.00 0.00 0.00 0.00 0.00 0.00 0.00 0.00 0.00 0.00 0.00 0.00 0.00 0.00 0.00 0.00 0.00 0.00 0.00 0.00 0.00 0.00 0.00 0.02 0.00 0.00 0.00 0.00 0.00 0.00 0.00 0.00 0.00 0.00
0.00 0.00 0.00 0.00 0.00 0.00 0.00 0.00 0.00 0.00 0.00 0.00 0.00 0.00 0.00 0.00 0.00 0.00 0.00 0.00 0.00 0.00 0.00 0.00 0.00 0.00 0.00 0.00 0.00 0.00 0.00 0.00 0.01 0.00 0.00 0.00 0.00 0.00 0.00 0.00 0.00 0.00 0.00
0.00 0.00 0.00 0.00 0.00 0.00 0.00 0.00 0.00 0.00 0.00 0.00 0.00 0.00 0.00 0.00 0.00 0.00 0.00 0.00 0.00 0.00 0.00 0.00 0.00 0.00 0.00 0.00 0.00 0.00 0.00 0.00 0.00 0.00 0.00 0.00 0.00 0.00 0.00 0.00 0.00 0.00 0.00
0.00 0.00 0.00 0.00 0.00 0.00 0.00 0.00 0.00 0.00 0.00 0.00 0.00 0.00 0.00 0.00 0.00 0.00 0.00 0.00 0.00 0.00 0.00 0.00 0.00 0.00 0.00 0.00 0.00 0.00 0.00 0.00 0.00 0.01 0.00 0.00 0.00 0.00 0.00 0.00 0.00 0.00 0.00
0.00 0.00 0.00 0.00 0.00 0.00 0.00 0.00 0.00 0.00 0.00 0.00 0.00 0.00 0.00 0.00 0.00 0.00 0.00 0.00 0.00 0.00 0.00 0.00 0.00 0.00 0.00 0.00 0.00 0.00 0.01 0.00 0.00 0.00 0.01 0.00 0.00 0.00 0.00 0.00 0.00 0.00 0.00
0.00 0.00 0.00 0.00 0.00 0.00 0.00 0.00 0.00 0.00 0.00 0.00 0.00 0.00 0.00 0.00 0.00 0.00 0.00 0.00 0.00 0.00 0.00 0.00 0.00 0.00 0.00 0.00 0.00 0.00 0.00 0.00 0.00 0.00 0.00 0.00 0.00 0.00 0.00 0.00 0.00 0.00 0.00
0.00 0.00 0.00 0.00 0.00 0.00 0.00 0.00 0.00 0.00 0.00 0.00 0.00 0.00 0.00 0.00 0.00 0.00 0.00 0.00 0.00 0.00 0.00 0.00 0.00 0.00 0.00 0.00 0.00 0.00 0.00 0.00 0.00 0.04 0.02 0.00 0.00 0.00 0.00 0.00 0.00 0.00 0.02
0.00 0.00 0.00 0.00 0.00 0.00 0.00 0.00 0.00 0.00 0.00 0.00 0.00 0.00 0.00 0.00 0.00 0.00 0.00 0.00 0.00 0.00 0.00 0.00 0.00 0.00 0.00 0.00 0.00 0.00 0.00 0.00 0.00 0.00 0.00 0.00 0.00 0.00 0.00 0.00 0.00 0.00 0.00
0.00 0.00 0.00 0.00 0.00 0.00 0.00 0.00 0.00 0.00 0.00 0.00 0.00 0.00 0.00 0.00 0.00 0.00 0.00 0.00 0.00 0.00 0.00 0.00 0.00 0.00 0.00 0.00 0.00 0.00 0.00 0.00 0.00 0.01 0.01 0.01 0.01 0.00 0.00 0.00 0.00 0.00 0.00
0.00 0.00 0.00 0.00 0.00 0.00 0.00 0.00 0.00 0.00 0.00 0.00 0.00 0.00 0.00 0.00 0.00 0.00 0.00 0.00 0.00 0.00 0.00 0.00 0.00 0.00 0.00 0.00 0.00 0.00 0.00 0.00 0.00 0.00 0.00 0.00 0.01 0.00 0.00 0.00 0.00 0.00 0.00
0.00 0.00 0.00 0.00 0.00 0.00 0.00 0.00 0.00 0.00 0.00 0.00 0.00 0.00 0.00 0.00 0.00 0.00 0.00 0.00 0.00 0.00 0.00 0.00 0.00 0.00 0.00 0.00 0.00 0.00 0.00 0.00 0.00 0.00 0.00 0.00 0.00 0.00 0.00 0.00 0.00 0.00 0.00
0.00 0.00 0.00 0.00 0.00 0.00 0.00 0.00 0.00 0.00 0.00 0.00 0.00 0.00 0.00 0.00 0.00 0.00 0.00 0.00 0.00 0.00 0.00 0.00 0.00 0.00 0.00 0.00 0.00 0.00 0.00 0.00 0.01 0.00 0.00 0.00 0.00 0.00 0.00 0.00 0.00 0.00 0.00
0.00 0.00 0.00 0.00 0.00 0.00 0.00 0.00 0.00 0.00 0.00 0.00 0.00 0.00 0.00 0.00 0.00 0.00 0.00 0.00 0.00 0.00 0.00 0.00 0.00 0.00 0.00 0.00 0.01 0.00 0.00 0.00 0.00 0.00 0.00 0.00 0.00 0.00 0.00 0.00 0.00 0.00 0.00
0.00 0.01 0.01 0.01 0.00 0.00 0.00 0.00 0.00 0.00 0.00 0.00 0.00 0.00 0.00 0.00 0.00 0.00 0.00 0.00 0.00 0.00 0.00 0.00 0.00 0.00 0.00 0.00 0.00 0.00 0.00 0.00 0.00 0.00 0.00 0.00 0.00 0.00 0.00 0.00 0.00 0.00 0.00
0.00 0.01 0.08 0.09 0.11 0.08 0.03 0.01 0.00 0.00 0.00 0.00 0.00 0.00 0.00 0.00 0.00 0.00 0.00 0.00 0.00 0.00 0.00 0.00 0.00 0.00 0.00 0.00 0.00 0.00 0.00 0.00 0.00 0.00 0.00 0.00 0.00 0.00 0.00 0.00 0.00 0.00 0.00
0.00 0.00 0.03 0.16 0.22 0.20 0.17 0.13 0.04 0.02 0.01 0.00 0.00 0.00 0.00 0.00 0.00 0.00 0.00 0.00 0.00 0.00 0.00 0.00 0.00 0.00 0.00 0.00 0.00 0.00 0.00 0.00 0.00 0.00 0.00 0.00 0.00 0.00 0.00 0.00 0.00 0.00 0.00
0.00 0.00 0.00 0.04 0.13 0.20 0.26 0.22 0.17 0.12 0.08 0.06 0.02 0.00 0.00 0.00 0.00 0.00 0.00 0.00 0.01 0.02 0.02 0.03 0.02 0.01 0.00 0.00 0.00 0.00 0.00 0.00 0.00 0.00 0.00 0.00 0.00 0.00 0.00 0.00 0.00 0.00 0.00
0.00 0.00 0.00 0.00 0.01 0.05 0.07 0.09 0.08 0.06 0.05 0.04 0.01 0.00 0.00 0.00 0.00 0.00 0.00 0.00 0.02 0.05 0.06 0.05 0.05 0.04 0.02 0.01 0.01 0.00 0.00 0.00 0.00 0.00 0.00 0.00 0.00 0.00 0.00 0.00 0.00 0.00 0.00
MSLP
1008.53 1011.09 1012.45 1012.99 1013.47 1013.83 1013.97 1014.41 1014.82 1015.16 1015.41 1015.75 1016.12 1016.34 1016.52 1016.65 1016.75 1016.94 1017.06 1017.24 1017.44 1017.60 1017.71 1017.76 1017.92 1018.02 1018.09 1018.15 1018.26 1018.35 1018.40 1018.42 1018.48 1018.58 1018.67 1018.81 1018.94 1018.96 1018.96 1018.79 1018.36 1018.96 1019.60
1008.68 1011.14 1012.58 1013.16 1013.56 1013.87 1014.19 1014.62 1015.09 1015.46 1015.65 1016.06 1016.35 1016.62 1016.82 1016.98 1017.07 1017.30 1017.44 1017.56 1017.68 1017.81 1017.94 1018.03 1018.21 1018.37 1018.49 1018.57 1018.62 1018.68 1018.71 1018.71 1018.80 1018.87 1018.97 1019.22 1019.37 1019.33 1019.34 1019.14 1019.02 1019.77 1019.96
1009.15 1010.97 1012.46 1013.23 1013.64 1014.01 1014.36 1014.79 1015.24 1015.59 1015.91 1016.32 1016.64 1016.88 1017.07 1017.25 1017.42 1017.55 1017.67 1017.80 1017.93 1018.03 1018.20 1018.36 1018.50 1018.68 1018.78 1018.91 1018.98 1019.05 1019.03 1018.98 1018.96 1018.92 1018.61 1018.37 1019.40 1019.95 1019.95 1019.94 1020.09 1020.29 1020.41
1009.38 1010.91 1011.80 1013.29 1013.75 1014.12 1014.49 1014.97 1015.40 1015.77 1016.10 1016.52 1016.79 1017.09 1017.31 1017.47 1017.60 1017.73 1017.82 1017.95 1018.07 1018.16 1018.41 1018.53 1018.70 1018.85 1019.04 1019.17 1019.29 1019.33 1019.18 1018.94 1019.07 1019.09 1018.51 1018.53 1019.41 1020.35 1020.47 1020.55 1020.60 1020.68 1020.80
1009.56 1010.82 1011.90 1013.32 1013.89 1014.41 1014.64 1015.14 1015.62 1015.90 1016.26 1016.64 1016.99 1017.24 1017.56 1017.71 1017.80 1017.93 1018.02 1018.07 1018.18 1018.42 1018.59 1018.76 1018.88 1019.02 1019.21 1019.42 1019.53 1019.45 1019.16 1018.94 1018.93 1018.84 1017.87 1018.56 1019.41 1020.60 1020.81 1020.93 1021.03 1021.04 1020.98
1009.35 1010.53 1012.72 1013.50 1014.09 1014.62 1014.95 1015.37 1015.80 1016.13 1016.42 1016.75 1017.06 1017.41 1017.65 1017.85 1017.98 1018.12 1018.17 1018.25 1018.31 1018.55 1018.74 1018.89 1019.06 1019.20 1019.33 1019.54 1019.70 1019.56 1019.31 1019.23 1019.06 1017.66 1018.30 1019.01 1019.69 1020.85 1020.95 1021.17 1021.26 1021.40 1021.48
1009.22 1010.38 1012.81 1013.83 1014.24 1014.82 1015.20 1015.58 1015.97 1016.28 1016.62 1016.96 1017.31 1017.56 1017.72 1017.97 1018.13 1018.26 1018.38 1018.47 1018.49 1018.62 1018.74 1018.88 1019.04 1019.25 1019.42 1019.53 1019.64 1019.54 1019.40 1018.88 1018.68 1017.83 1018.32 1019.18 1020.42 1021.04 1021.17 1021.40 1021.60 1021.71 1021.80
1009.24 1010.56 1012.69 1014.10 1014.52 1014.89 1015.36 1015.76 1016.03 1016.42 1016.74 1017.07 1017.45 1017.71 1017.87 1017.99 1018.31 1018.42 1018.56 1018.63 1018.67 1018.67 1018.85 1018.95 1019.03 1019.19 1019.37 1019.50 1019.60 1019.43 1018.89 1019.11 1018.58 1017.79 1017.98 1019.37 1020.82 1021.11 1021.35 1021.50 1021.74 1021.91 1022.01
1009.22 1010.55 1012.55 1013.67 1014.54 1015.17 1015.43 1015.87 1016.23 1016.51 1016.82 1017.19 1017.51 1017.83 1018.01 1018.19 1018.38 1018.59 1018.67 1018.74 1018.74 1018.79 1018.89 1018.91 1019.01 1019.13 1019.28 1019.40 1019.45 1019.35 1018.79 1018.52 1017.88 1017.46 1017.90 1019.54 1020.89 1021.17 1021.48 1021.72 1021.84 1022.05 1022.19
1009.11 1010.29 1011.91 1012.86 1013.82 1014.70 1015.16 1016.00 1016.51 1016.82 1017.04 1017.36 1017.62 1017.91 1018.05 1018.27 1018.41 1018.53 1018.64 1018.72 1018.66 1018.82 1018.95 1018.97 1019.01 1019.01 1019.11 1019.22 1019.24 1019.07 1018.20 1018.10 1017.49 1016.97 1017.64 1019.41 1020.65 1021.12 1021.48 1021.81 1021.99 1022.14 1022.33
1008.90 1009.74 1011.13 1012.05 1013.02 1013.84 1014.32 1015.68 1016.62 1017.06 1017.36 1017.58 1017.75 1017.90 1018.16 1017.45 1018.02 1018.24 1018.26 1018.56 1018.64 1018.77 1018.86 1018.93 1019.02 1018.98 1018.90 1018.97 1018.94 1018.61 1017.82 1018.22 1017.65 1016.09 1017.45 1019.57 1020.57 1021.08 1021.50 1021.83 1022.02 1022.12 1022.29
1008.69 1009.18 1010.40 1011.34 1012.25 1013.05 1013.72 1014.99 1015.96 1016.48 1016.78 1017.03 1017.09 1017.40 1017.21 1016.52 1016.95 1017.09 1017.95 1018.64 1018.73 1018.76 1018.82 1018.77 1018.72 1018.58 1018.57 1017.79 1018.20 1018.14 1017.18 1017.35 1015.83 1017.15 1018.19 1019.37 1020.56 1021.08 1021.39 1021.71 1022.02 1022.18 1022.24
1008.34 1008.91 1009.80 1010.84 1011.77 1012.09 1012.73 1014.08 1015.05 1015.47 1015.97 1016.40 1016.59 1016.83 1016.65 1015.85 1016.63 1016.91 1017.47 1018.06 1018.18 1018.61 1018.09 1018.31 1018.20 1017.65 1016.60 1016.27 1016.35 1016.46 1017.78 1017.01 1016.18 1017.33 1018.64 1019.49 1020.43 1020.99 1021.40 1021.68 1021.87 1022.07 1022.17
1007.99 1008.73 1009.57 1010.56 1011.58 1011.59 1011.91 1013.22 1014.08 1014.36 1015.02 1015.50 1015.78 1016.35 1016.17 1015.84 1016.34 1016.53 1016.11 1016.66 1016.95 1017.15 1016.64 1017.11 1016.81 1016.32 1015.95 1015.88 1015.96 1015.95 1015.91 1016.23 1016.60 1016.52 1017.49 1019.03 1020.32 1021.01 1021.27 1021.54 1021.79 1021.97 1022.16
1007.91 1008.68 1009.42 1010.25 1011.31 1011.73 1011.94 1012.59 1013.44 1013.71 1014.21 1014.47 1014.98 1015.79 1015.78 1016.01 1015.89 1016.02 1015.72 1015.62 1015.78 1015.90 1015.98 1016.28 1015.97 1016.72 1016.83 1016.71 1016.06 1016.52 1016.67 1016.27 1018.06 1018.94 1020.14 1018.72 1020.48 1021.00 1021.27 1021.39 1021.55 1021.68 1021.83
1008.41 1008.97 1009.64 1010.32 1011.33 1011.76 1012.03 1012.51 1012.95 1013.30 1013.41 1013.88 1014.22 1014.82 1015.91 1015.81 1015.81 1015.85 1015.81 1015.84 1015.64 1015.42 1015.69 1015.89 1016.04 1016.83 1016.74 1016.58 1017.20 1017.06 1017.37 1017.06 1016.77 1016.70 1017.59 1019.45 1021.02 1021.50 1021.64 1021.79 1021.83 1021.82 1021.71
1008.91 1009.35 1010.14 1010.55 1011.28 1012.18 1012.28 1012.61 1012.84 1012.78 1013.15 1013.56 1013.83 1014.58 1015.49 1015.77 1015.68 1015.92 1015.71 1015.89 1015.70 1015.69 1015.73 1015.86 1016.39 1017.04 1017.00 1016.64 1016.98 1017.42 1017.81 1017.75 1017.94 1018.65 1019.33 1020.13 1021.39 1021.97 1022.31 1022.31 1022.29 1022.39 1022.24
1009.23 1009.75 1010.14 1010.54 1010.91 1012.15 1012.26 1012.52 1012.53 1012.69 1013.08 1013.32 1013.80 1014.14 1015.09 1015.59 1015.78 1016.23 1015.56 1015.58 1015.62 1015.89 1016.06 1015.87 1016.60 1017.23 1017.46 1017.24 1017.04 1017.84 1017.90 1018.87 1019.72 1020.17 1020.64 1021.20 1021.70 1022.22 1022.58 1022.80 1022.90 1022.97 1023.16
1009.46 1009.89 1010.29 1010.54 1010.77 1011.45 1012.54 1012.42 1012.73 1012.63 1012.86 1013.04 1013.29 1013.72 1014.60 1015.36 1015.51 1015.64 1015.54 1015.26 1015.69 1015.84 1016.14 1016.23 1016.70 1017.15 1017.20 1017.40 1017.36 1018.77 1019.59 1020.16 1020.48 1021.08 1021.67 1022.09 1022.45 1022.75 1022.83 1023.37 1023.42 1023.53 1023.62
1009.22 1009.71 1010.35 1010.70 1010.91 1011.18 1011.94 1012.63 1012.80 1012.66 1012.50 1012.79 1012.77 1013.04 1013.76 1014.75 1015.19 1015.41 1015.24 1015.27 1015.54 1016.05 1016.21 1016.33 1016.60 1016.82 1017.10 1017.62 1017.71 1019.48 1020.21 1020.51 1021.11 1021.63 1022.23 1022.21 1022.35 1022.64 1022.85 1023.08 1023.28 1024.02 1024.12
1009.54 1009.43 1009.92 1010.55 1010.97 1011.50 1011.73 1012.06 1012.21 1012.26 1012.21 1012.30 1012.48 1012.86 1013.29 1013.98 1014.71 1015.17 1015.27 1015.00 1015.58 1016.15 1016.29 1016.43 1016.74 1017.19 1017.51 1017.53 1018.93 1020.13 1020.77 1021.21 1021.51 1021.91 1022.05 1022.28 1022.39 1022.57 1022.53 1022.37 1022.61 1023.37 1024.32
1010.46 1010.26 1010.13 1010.61 1011.10 1011.44 1011.33 1011.66 1011.92 1011.84 1011.73 1011.76 1011.92 1012.37 1012.98 1013.54 1014.19 1014.54 1014.97 1014.93 1015.11 1016.17 1016.32 1016.56 1016.93 1016.95 1017.72 1017.51 1018.13 1019.26 1020.42 1021.52 1021.37 1021.38 1021.38 1021.81 1021.76 1021.89 1022.08 1022.24 1022.60 1022.86 1023.22
1010.81 1010.58 1010.61 1010.57 1011.11 1011.59 1011.50 1011.58 1011.73 1011.66 1011.58 1011.54 1011.73 1012.18 1012.52 1013.18 1013.79 1014.41 1014.56 1015.03 1015.01 1015.75 1015.86 1016.75 1017.18 1017.21 1016.90 1017.06 1017.79 1017.80 1018.13 1018.65 1020.05 1021.15 1021.34 1021.40 1021.30 1021.42 1021.96 1022.75 1022.79 1023.07 1023.37
1012.35 1011.63 1011.55 1011.25 1011.53 1011.79 1011.92 1011.91 1011.64 1011.39 1011.02 1011.33 1011.62 1012.34 1012.80 1013.52 1013.94 1014.28 1014.58 1014.88 1015.31 1015.66 1015.88 1016.24 1016.92 1017.02 1017.10 1016.47 1017.28 1017.72 1017.34 1017.88 1018.46 1020.10 1020.99 1021.26 1021.60 1021.54 1022.14 1022.64 1022.97 1023.40 1023.31
1013.38 1013.05 1012.95 1012.91 1013.01 1013.18 1012.64 1012.23 1011.67 1011.91 1011.65 1012.40 1012.64 1012.81 1013.01 1013.45 1013.88 1014.60 1014.91 1015.06 1015.56 1016.02 1016.07 1016.13 1016.69 1017.03 1016.81 1016.55 1016.49 1017.01 1017.37 1017.50 1017.80 1018.21 1019.67 1020.83 1021.36 1021.61 1022.13 1022.32 1022.85 1023.34 1023.34
1014.24 1013.98 1013.79 1013.87 1014.02 1013.89 1013.93 1013.94 1012.64 1011.54 1011.22 1013.17 1013.35 1013.50 1013.19 1013.76 1013.86 1013.71 1014.00 1014.99 1015.89 1016.45 1016.63 1016.84 1016.88 1017.04 1017.13 1016.79 1016.38 1016.40 1016.54 1017.25 1017.23 1017.53 1018.28 1019.98 1020.71 1021.23 1022.15 1022.45 1022.81 1023.19 1023.53
Thickness
5832 5814 5802 5797 5793 5790 5788 5784 5779 5777 5775 5772 5769 5767 5765 5764 5763 5760 5759 5757 5755 5752 5752 5752 5751 5750 5750 5750 5750 5749 5749 5749 5749 5748 5747 5746 5745 5745 5745 5746 5749 5743 5738
5835 5812 5801 5796 5792 5788 5785 5782 5777 5774 5773 5769 5767 5765 5763 5762 5761 5758 5757 5755 5754 5752 5751 5750 5749 5748 5748 5748 5748 5747 5747 5748 5748 5747 5746 5744 5743 5743 5743 5745 5744 5738 5736
5829 5813 5801 5795 5791 5786 5783 5780 5777 5773 5770 5767 5764 5762 5761 5759 5757 5756 5755 5753 5753 5751 5749 5748 5747 5746 5746 5745 5745 5745 5746 5747 5747 5748 5750 5750 5743 5739 5738 5738 5737 5735 5733
5825 5812 5804 5794 5789 5785 5782 5778 5775 5772 5769 5765 5762 5759 5758 5757 5755 5753 5753 5752 5752 5751 5749 5748 5747 5746 5745 5744 5744 5744 5746 5748 5747 5747 5751 5750 5742 5736 5734 5733 5733 5733 5731
5821 5811 5802 5791 5787 5782 5780 5777 5773 5771 5768 5764 5760 5758 5755 5753 5752 5752 5751 5752 5752 5749 5748 5746 5746 5746 5744 5742 5742 5743 5746 5748 5748 5749 5755 5750 5744 5735 5733 5732 5730 5731 5731
5820 5810 5794 5787 5783 5778 5776 5773 5770 5767 5766 5763 5760 5756 5754 5752 5751 5750 5750 5750 5751 5749 5747 5746 5745 5744 5743 5741 5740 5742 5745 5747 5749 5757 5752 5747 5741 5734 5733 5731 5730 5729 5728
5816 5807 5789 5781 5779 5774 5772 5769 5766 5764 5761 5759 5756 5755 5753 5751 5749 5749 5749 5748 5749 5749 5748 5747 5746 5745 5743 5743 5742 5744 5745 5750 5750 5757 5753 5746 5738 5734 5733 5731 5728 5727 5727
5810 5801 5785 5775 5773 5771 5767 5765 5764 5762 5760 5757 5753 5751 5751 5751 5747 5747 5747 5747 5747 5747 5746 5746 5747 5746 5745 5744 5744 5746 5752 5750 5754 5758 5757 5746 5737 5734 5731 5731 5728 5726 5726
5807 5797 5781 5775 5769 5765 5765 5761 5759 5759 5758 5755 5752 5749 5749 5747 5746 5744 5744 5744 5745 5746 5746 5746 5747 5747 5746 5746 5746 5747 5753 5756 5760 5762 5757 5745 5736 5734 5731 5729 5728 5726 5724
5806 5797 5783 5777 5771 5765 5763 5757 5753 5752 5753 5751 5749 5747 5747 5745 5745 5744 5744 5743 5745 5745 5745 5746 5746 5748 5747 5747 5748 5750 5760 5757 5757 5766 5761 5748 5739 5735 5732 5729 5728 5726 5724
5804 5800 5788 5780 5774 5768 5766 5756 5749 5747 5746 5745 5746 5746 5743 5749 5745 5744 5746 5744 5744 5745 5745 5744 5744 5745 5749 5749 5750 5755 5765 5752 5757 5775 5764 5748 5739 5735 5731 5729 5727 5727 5726
5797 5798 5792 5783 5776 5771 5767 5759 5751 5747 5746 5745 5746 5747 5748 5754 5751 5749 5745 5741 5742 5743 5744 5745 5746 5748 5750 5755 5753 5757 5769 5765 5779 5768 5745 5749 5737 5733 5732 5729 5726 5725 5725
5801 5799 5796 5787 5779 5776 5772 5764 5755 5752 5749 5747 5746 5747 5750 5757 5750 5749 5746 5742 5743 5742 5747 5747 5749 5753 5762 5767 5767 5768 5762 5771 5770 5764 5752 5745 5737 5732 5729 5727 5726 5725 5724
5800 5797 5795 5788 5779 5780 5777 5766 5760 5758 5754 5751 5750 5747 5750 5755 5751 5751 5755 5750 5749 5749 5756 5753 5756 5763 5769 5771 5769 5768 5770 5769 5767 5764 5754 5746 5736 5730 5729 5727 5725 5724 5723
5796 5793 5792 5789 5779 5776 5775 5770 5761 5760 5756 5756 5755 5748 5750 5750 5753 5752 5757 5756 5756 5757 5758 5757 5761 5755 5756 5758 5765 5761 5761 5766 5751 5730 5717 5747 5733 5730 5727 5727 5725 5725 5723
5790 5788 5786 5784 5778 5774 5772 5768 5763 5760 5760 5756 5756 5754 5746 5749 5749 5751 5753 5753 5754 5758 5757 5757 5757 5750 5752 5755 5755 5753 5749 5755 5759 5765 5757 5740 5726 5723 5722 5721 5721 5722 5723
5784 5784 5778 5778 5775 5767 5767 5764 5762 5762 5758 5756 5754 5749 5744 5744 5746 5744 5748 5749 5750 5752 5753 5753 5750 5746 5747 5750 5749 5745 5741 5742 5742 5741 5734 5729 5720 5717 5714 5714 5715 5714 5716
5779 5775 5776 5775 5774 5763 5763 5762 5761 5760 5757 5755 5751 5750 5743 5741 5742 5738 5744 5746 5746 5746 5745 5749 5745 5740 5738 5741 5744 5737 5737 5731 5723 5724 5721 5717 5714 5712 5710 5707 5707 5707 5705
5771 5769 5768 5770 5769 5765 5757 5758 5756 5757 5755 5753 5752 5749 5744 5739 5740 5739 5740 5744 5741 5741 5740 5741 5739 5736 5734 5734 5736 5729 5721 5718 5714 5713 5708 5706 5704 5703 5704 5700 5700 5699 5697
5769 5767 5763 5762 5762 5762 5755 5751 5750 5753 5755 5751 5753 5751 5746 5739 5737 5737 5738 5738 5737 5733 5734 5735 5734 5735 5732 5728 5727 5717 5712 5711 5708 5704 5701 5700 5700 5699 5698 5696 5693 5689 5688
5759 5761 5759 5755 5755 5752 5749 5745 5744 5745 5749 5750 5749 5746 5744 5739 5735 5733 5732 5735 5730 5726 5726 5729 5728 5724 5720 5724 5712 5704 5699 5699 5699 5697 5697 5695 5695 5694 5693 5695 5694 5688 5681
5742 5746 5749 5747 5745 5745 5747 5744 5742 5742 5746 5748 5747 5744 5741 5736 5731 5730 5727 5730 5729 5717 5718 5719 5718 5718 5712 5717 5709 5701 5685 5683 5692 5695 5695 5692 5692 5692 5691 5690 5687 5685 5683
5733 5737 5737 5740 5737 5735 5738 5737 5736 5738 5738 5739 5740 5739 5739 5732 5727 5722 5723 5718 5724 5716 5714 5707 5706 5706 5708 5710 5709 5705 5696 5694 5690 5688 5689 5689 5692 5689 5686 5680 5679 5678 5675
5713 5724 5724 5727 5725 5725 5726 5725 5725 5726 5728 5730 5729 5725 5723 5719 5717 5715 5713 5711 5710 5711 5707 5707 5700 5701 5698 5702 5703 5702 5707 5700 5693 5678 5680 5682 5682 5679 5676 5672 5670 5666 5666
5696 5699 5703 5704 5704 5703 5712 5713 5712 5711 5713 5708 5708 5709 5710 5710 5707 5702 5699 5699 5697 5697 5698 5698 5694 5691 5694 5694 5695 5695 5690 5695 5695 5690 5674 5670 5672 5671 5667 5666 5662 5657 5657
5680 5684 5686 5686 5686 5689 5689 5688 5689 5690 5690 5690 5693 5681 5690 5691 5696 5697 5694 5688 5682 5682 5684 5682 5686 5684 5682 5686 5686 5688 5685 5681 5680 5682 5676 5666 5663 5659 5655 5651 5650 5645 5643